Weather in Udachnoye

Russia / Astrakhan Oblast     47°44′46″N   46°47′51″E
temp.,
°C
wind,
m/s
gust,
m/s
humid.,
%
clouds,
%
prec.,
mm/h
press.,
hPa
HPBL,
m
8 march, mon
mon801:00−1sw8155933 0.0 1019581
04:00−1sw8156126 0.0 1018677
07:00−1sw916650 0.0 1017601
10:00+1wsw1013560 0.0 1017963
13:00+4sw1012470 0.0 10161381
16:00+5wsw912462 0.0 10141483
19:00+2sw5126222 0.0 1014280
22:00+1sw6117038 0.0 1015279
9 march, tue
tue901:000sw6117293 0.0 1014261
04:00−1sw5107896 0.0 1014235
07:00−1sw5108381 0.0 1013237
10:00+3sw7107089 0.0 1013731
13:00+3sw81183100 0.1 1011826
16:00+3w81189100 0.5 1011780
19:00+1wnw7136587 0.1 1012663
22:00−2nw488143 0.1 1015268
10 march, wed
wed1001:00−2wsw35790 0.0 1016105
04:00−1wnw5107127 0.0 1016422
07:00−4nnw586989 0.0 1018661
10:00−3nw794959 0.0 10201069
13:00−2nw79410 0.0 10211394
16:00−2nw79390 0.0 10221559
19:00−5nnw58500 0.0 1022619
22:00−6nnw46520 0.0 1024870
11 march, thu
thu1101:00−7n455324 0.0 1024803
04:00−9n564932 0.0 1025684
07:00−10n45590 0.0 1025597
10:00−9nne55460 0.0 1027808
13:00−7nne55340 0.0 10261172
16:00−6nne66310 0.0 10261273
19:00−9nne56360 0.0 10281032
22:00−10nne56440 0.0 1030713
12 march, fri
fri1201:00−12nne56490 0.0 1031534
04:00−13nne56510 0.0 1031448
07:00−14nne35510 0.0 1032413
10:00−11ne34360 0.0 1034595
13:00−8ne23240 0.0 1033968
16:00−6ne33200 0.0 10321151
19:00−7ene23260 0.0 1032148
22:00−8ese34310 0.0 1033149